www.pogodaiklimat.ru

Погода и климат >> Архив погоды >> Вьетнам >> Шонла


ПОГОДА в Шонле

  • Прогноз погоды в Шонле
  • Монитор погоды в Шонле

АРХИВ ПОГОДЫ в Шонле

Время (UTC), дата Ветер
(напр.,м/с)
 
Видим.   Явления Облачность Т
(С)
Тd
(С)
f
(%)
Тe
(С)
Тes
(С)
Комфортность P
(гПа)
Po
(гПа)
Тmin
(С)
Tmax
(С)
R
(мм)
R24
(мм)
S
(см)
21 15.08 Ю 1 10 км 10/10 300 м
[Cb cap]
+23.1 +21.7 92 +31 +31 очень
душно
1004.0 928.8
00 16.08 штиль 0 20 км 8/8
[Cu Sc]
+23.7 +22.3 92 +31 +31 очень
душно
1004.3 929.1 +23.0 0.0
03 16.08 ЮВ 3 20 км 8/8 600 м
[Cu med, cong]
+26.0 +23.0 84 +35 +37 очень
душно
1003.9 929.2
06 16.08 СВ 2 20 км 8/8 600 м
[Cu med, cong]
+30.0 +23.8 69 +41 +45 опасность
перегрева
1000.5 927.2 0.0
09 16.08 штиль 0 20 км 9/9 600 м
[Cu med, cong]
+29.0 +21.7 65 +37 +38 очень
душно
1003.0 926.3
12 16.08 штиль 0 20 км в посл. час гроза 9/9
[Cb cap]
+24.6 +22.3 87 +32 +32 очень
душно
1003.0 927.8 +31.5 0.0
15 16.08 штиль 0 20 км 4/4 600 м
[Cu med, cong]
+24.0 +22.9 94 +32 +32 очень
душно
1001.1 929.7
18 16.08 штиль 0 20 км 6/6 600 м
[Cu med, cong]
+23.4 +23.1 98 +33 +33 очень
душно
1005.2 930.0
21 16.08 штиль 0 20 км 9/9 300 м
[Cu Sc]
+22.6 +22.3 98 +30 +30 очень
душно
1004.9 929.2
00 17.08 штиль 0 20 км 9/9 300 м
[Cu Sc]
+22.7 +22.5 99 +31 +31 очень
душно
1005.6 929.9 +22.5
03 17.08 штиль 0 20 км 8/8 600 м
[Cu med, cong]
+29.0 +21.4 64 +37 +41 очень
душно
1004.6 930.9
06 17.08 штиль 0 20 км в посл. час ливневой дождь 9/9 600 м
[Cb cap]
+26.0 +24.1 89 +36 +39 очень
душно
1004.2 929.5 16
09 17.08 штиль 0 20 км {ливн. осадки} 9/9 600 м
[Cb cap]
+26.3 +23.3 84 +36 +36 очень
душно
1003.1 928.4
12 17.08 В 1 10 км слаб. ливневой дождь 9/9 300 м
[Cb cap]
+24.0 +22.6 92 +31 +31 очень
душно
1004.5 929.3 +30.6 16
15 17.08 штиль 0 10 км {ливн. осадки} 8/8 600 м
[Cu med, cong]
+23.0 +22.4 96 +31 +31 очень
душно
1006.8 931.6
18 17.08 штиль 0 10 км {ливн. осадки} 8/8 600 м
[Cu med, cong]
+22.6 +22.1 97 +30 +30 очень
душно
1006.9 931.2 0.0
21 17.08 штиль 0 10 км 8/8 600 м
[Cu med, cong]
+22.6 +22.3 98 +30 +30 очень
душно
1006.3 930.6
00 18.08 штиль 0 20 км 8/8
[Cu Sc]
+22.8 +22.5 98 +31 +32 очень
душно
1007.5 931.8 +22.4 0.0
03 18.08 С 1 20 км 8/8 600 м
[Cu med, cong]
+28.5 +23.5 74 +39 +42 очень
душно
1007.1 932.5
06 18.08 ЮЗ 1 20 км в посл. час гроза {ливн. осадки} 9/9 300 м
[Cb cap]
+25.2 +23.6 91 +34 +37 очень
душно
1005.8 931.1 0.9
09 18.08 Ю 1 20 км {ливн. осадки} 5/5 300 м
[Cu med, cong]
+29.5 +24.0 72 +41 +45 опасность
перегрева
1002.4 928.7
12 18.08 штиль 0 20 км {ливн. осадки} 3/3 300 м
[Cu hum]
+28.2 +24.3 79 +39 +39 очень
душно
1003.4 929.2 +30.5 0.9
15 18.08 штиль 0 20 км 3/3 600 м
[Cu med, cong]
+25.6 +23.2 87 +34 +34 очень
душно
1006.0 931.3
18 18.08 штиль 0 20 км 8/8 600 м
[Cu med, cong]
+24.5 +23.4 94 +33 +33 очень
душно
1006.3 931.1
21 18.08 штиль 0 20 км 8/8 600 м
[Cu med, cong]
+23.8 +22.6 93 +31 +31 очень
душно
1005.5 930.3
00 19.08 штиль 0 20 км 5/5 1000 м
[Sc]
+24.0 +23.2 95 +32 +33 очень
душно
1006.1 930.9 +23.4
03 19.08 СВ 1 20 км 3/3 600 м
[Cu med, cong]
+29.7 +22.0 63 +38 +51 опасность
солнечного
удара
1004.7 931.0
06 19.08 З 2 20 км 4/4 600 м
[Cu med, cong]
+30.7 +23.4 65 +41 +54 опасность
перегрева
1003.0 929.3
09 19.08 ЮЗ 1 20 км 9/9 300 м
[Cu Sc]
+28.5 +22.4 70 +37 +38 очень
душно
1002.3 928.1
12 19.08 штиль 0 20 км 8/8 300 м
[Cu Sc]
+28.3 +22.1 69 +37 +37 очень
душно
1003.2 929.0 +32.3
15 19.08 штиль 0 20 км 8/8 600 м
[Cu med, cong]
+25.8 +21.9 79 +33 +33 очень
душно
1005.3 930.6
18 19.08 штиль 0 20 км 8/8 1000 м
[Sc]
+24.7 +22.7 89 +33 +33 очень
душно
1005.5 930.3
21 19.08 штиль 0 20 км 10/10 300 м
[Cu Sc]
+24.4 +22.7 90 +32 +32 очень
душно
1005.0 929.8
00 20.08 штиль 0 20 км 6/6 1000 м
[Sc]
+24.2 +22.7 91 +32 +33 очень
душно
1005.6 930.4 +23.5
03 20.08 СВ 1 20 км 8/8 600 м
[Cu med, cong]
+28.8 +23.4 73 +39 +43 очень
душно
1004.9 930.7
06 20.08 В 1 20 км 8/8 600 м
[Cu med, cong]
+31.6 +24.6 66 +44 +49 опасность
перегрева
1001.8 928.6
09 20.08 В 2 10 км гроза, ливневой дождь 10/10 300 м
[Cb cap]
+28.0 +23.8 78 +39 +39 очень
душно
1002.4 928.2
12 20.08 В 2 10 км слаб. ливневой дождь {гроза} 9/9 600 м
[Cb cap]
+26.6 +23.0 81 +36 +36 очень
душно
1003.0 928.3 +32.4 0.7
15 20.08 штиль 0 10 км {ливн. осадки} 8/8 300 м
[Cu Sc]
+25.0 +23.0 89 +33 +33 очень
душно
1005.5 930.8
18 20.08 штиль 0 10 км {ливн. осадки} 8/8 300 м
[Cu Sc]
+23.6 +22.5 94 +31 +31 очень
душно
1005.9 930.7 0.0
21 20.08 штиль 0 10 км ясно +22.6 +21.7 95 +30 +30 очень
душно
1005.9 930.2
00 21.08 штиль 0 10 км 9/9
[Cu Sc]
+22.0 +21.0 94 +28 +29 душно 1006.8 931.1 +21.7 0.0
03 21.08 В 1 20 км 9/9 300 м
[Cu Sc]
+27.9 +22.6 73 +37 +39 очень
душно
1006.5 932.3
06 21.08 ЮВ 2 20 км 10/10 300 м
[Cu Sc]
+28.8 +24.8 79 +41 +41 опасность
перегрева
1005.0 930.8 0.0
09 21.08 штиль 0 20 км 9/9 600 м
[Cu Sc]
+27.0 +24.1 84 +37 +38 очень
душно
1003.5 929.3
12 21.08 штиль 0 20 км 10/10
[Cu Sc]
+25.4 +22.9 86 +34 +34 очень
душно
1004.6 929.9 +29.6 0.0
15 21.08 штиль 0 20 км 6/6 600 м
[Cu med, cong]
+24.5 +22.7 90 +32 +32 очень
душно
1007.4 932.2
18 21.08 штиль 0 20 км зарница 5/5 600 м
[Cb cap]
+23.2 +22.7 97 +32 +32 очень
душно
1006.9 931.7
21 21.08 штиль 0 20 км 9/9 600 м
[Cu Sc]
+22.5 +22.0 97 +30 +30 очень
душно
1006.6 930.9
00 22.08 штиль 0 20 км 10/10 300 м
[Cu Sc]
+22.7 +22.4 98 +31 +31 очень
душно
1007.5 931.8 +22.4
03 22.08 штиль 0 10 км слаб. ливневой дождь 10/10 300 м
[Cb cap]
+24.0 +23.2 95 +32 +32 очень
душно
1008.4 932.8
06 22.08 штиль 0 20 км {ливн. осадки} 5/5 600 м
[Cu med, cong]
+26.8 +23.6 83 +37 +50 очень
душно
1005.7 931.0 0.5
09 22.08 ЮВ 2 20 км 5/5 600 м
[Cu med, cong]
+27.8 +22.6 73 +37 +40 очень
душно
1003.4 929.2
12 22.08 штиль 0 20 км 8/8
[Cu med, cong]
+25.7 +21.8 79 +33 +33 очень
душно
1005.9 931.2 +28.5 0.5
15 22.08 штиль 0 20 км 8/8 1000 м
[Sc]
+24.6 +20.6 78 +31 +31 очень
душно
1008.8 933.2
18 22.08 штиль 0 20 км ясно +23.6 +22.2 92 +31 +31 очень
душно
1008.5 932.9

 

Местоположение метеостанции Шонла (Вьетнам): широта 21.33 долгота 103.90 высота над уровнем моря 676 м.

В архиве по умолчанию представлена погода в Шонле за последнюю неделю. Архивные данные за месяц целиком и за предыдущие месяцы, начиная с января 2011 года, Вы можете получить, выбрав интересующий диапазон дат из раскрывающегося списка и нажав кнопку "Ввод!".


*Определитесь, кто Вы:
робот инопланетянин человек

Внимание! Время в таблицах - всемирное. Для получения местного времени необходимо прибавить поправку, которая равна 7 ч.

Смотрите также архив погоды в соседних городах и на ближайших метеорологических станциях:

Погода в Самныа (Лаос) (103 км)
Погода во Вьенгсае (Лаос) (107 км)
Погода в Шапе (Вьетнам) (113 км)
Погода в Лаокае (Вьетнам) (130 км)
Погода в Хайфоне (Вьетнам) (198 км)
Погода в Ханое (Вьетнам) (200 км)
Погода в Боуннеуа (Лаос) (210 км)
Погода в Удомсае (Лаос) (211 км)
Погода в Баккане (Вьетнам) (219 км)
Погода в Плейн оф Джарс (Лаос) (222 км)

Пояснения к столбцам:

Ветер - указаны скорость ветра в м/с - средняя за 10 мин, порывы в срок и между сроками (в фигурных скобках) и направление, откуда дует ветер: С - северный, СВ - северо-восточный, В - восточный, ЮВ - юго-восточный, Ю - южный, ЮЗ - юго-западный, З - западный, СЗ - северо-западный.
Видимость - горизонтальная дальность видимости в метрах или километрах. При видимости от 1 до 10 км при отсутствии осадков обычно наблюдается дымка, при ухудшении видимости до 1 км и менее - туман. В сухую погоду видимость может ухудшаться дымом, пылью или мглою.
Явления - указаны атмосферные явления, наблюдавшиеся в срок или в последний час перед сроком; фигурными скобками обозначены явления, наблюдавшиеся между сроками (за 1-3 часа до срока); квадратными скобками обозначены град или гололедные отложения с указанием их диаметра в мм.
Облачность - указаны через наклонную черту общая и нижняя облачность в баллах и высота нижней границы облаков в метрах; квадратными скобками обозначены формы облаков: Ci - перистые, Cs - перисто-слоистые, Cc - перисто-кучевые, Ac - высококучевые, As - высокослоистые, Sc - слоисто-кучевые, Ns - слоисто-дождевые, Cu - кучевые, Cb - кучево-дождевые. Подробнее классификацию облаков см. в Атласе облаков (PDF).
T - Температура воздуха - температура, измеренная на высоте 2 м над землей.
Td - Температура точки росы - температура, при понижении до которой содержащийся в воздухе водяной пар достигнет насыщения.
f - Относительная влажность воздуха - влажноcть воздуха, измеренная на высоте 2 м над землей.
Te - Эффективная температура - температура, которую ощущает одетый по сезону человек в тени. Характеристика душности погоды. При расчете учитывается влияние влажности воздуха и скорости ветра на теплоощущения человека.
Tes - Эффективная температура на солнце - температура, которую ощущает человек, с поправкой на солнечный нагрев. Характеристика знойности погоды. Зависит от высоты солнца над горизонтом, облачности и скорости ветра. Ночью, в пасмурную погоду, а также при ветре 12 м/с и более поправка равна нулю.
P - Атмосферное давление - приведенное к уровню моря атмосферное давление.
Po - Атмосферное давление - измеренное на уровне метеостанции атмосферное давление.
Tmin - Минимальная температура - минимум температуры воздуха на высоте 2 м над землей.
Tmax - Максимальная температура - максимум температуры воздуха на высоте 2 м над землей.
R - Количество осадков - Количество выпавших осадков за период времени, мм. При наведении курсора мыши на число - период времени, за который выпало указанное количество осадков.
R24 - Количество осадков - Количество выпавших осадков за 24 часа, мм.
S - Снежный покров - Высота снежного покрова, см. При наведении курсора мыши на число - состояние снежного покрова и степень покрытия местности в баллах.